Location: Antebellum North
(32.6715°N, 83.7049°W)
Time: 00:09:51
(UTC+00:00)

Daily predictions for brighter satellites

Satellite Brightness Start Highest point End
(mag) Time Altitude Azimuth Time Altitude Azimuth Time Altitude Azimuth
Cosmos 1500 Rocket 3.9 00:45:16 10° N 00:49:29 47° E 00:53:38 10° SSE
GEOS 3 Rocket 3.8 00:45:07 10° SE 00:50:27 72° NE 00:55:49 10° NNW
OAO 3 Rocket 4.0 00:46:37 10° SSW 00:50:38 30° SSE 00:54:41 10° E
DELTA 2 R/B (1) 4.0 00:45:54 10° WNW 00:51:24 59° NNE 00:56:54 10° E
Cosmos 1933 4.4 00:48:04 10° SSE 00:51:25 26° E 00:54:46 10° NE
Tianhe-1 2.5 00:50:12 10° SSW 00:52:34 20° SE 00:54:57 10° E
Cosmos 968 Rocket 4.3 00:47:41 10° SSW 00:52:49 57° WNW 00:57:58 10° N
FALCON 9 DEB 3.2 00:50:08 10° NW 00:53:09 61° SW 00:56:08 10° SSE
Cosmos 1844 Rocket 3.6 00:49:05 10° SW 00:54:31 56° WNW 01:00:00 10° N
Cosmos 2278 Rocket 3.4 00:52:26 10° SE 00:56:23 20° E 01:00:20 10° NE
SAR-Lupe-1 4.1 00:53:23 10° N 00:56:58 86° W 01:00:32 10° SSW
CSL-04 Debris 4.2 00:56:13 10° SSE 01:01:39 90° W 01:07:05 10° NNW
MetOp-A 4.3 00:59:33 10° SSE 01:04:46 59° ENE 01:10:02 10° N
YAOGAN 1 4.3 01:03:08 10° SSW 01:07:03 34° W 01:10:59 10° NNW
Cosmos 2084 3.6 01:02:59 10° SW 01:07:04 76° WNW 01:11:14 10° NNE
Sich 1 4.0 01:03:31 10° NNE 01:07:19 28° E 01:10:57 11° SE
Intercosmos 24 4.1 01:04:46 10° SSE 01:08:29 41° E 01:11:51 10° NNE
Cosmos 1354 Rocket 4.0 01:04:02 10° S 01:09:12 71° ESE 01:14:26 10° NNE
SJ-6B 3.4 01:05:49 10° SE 01:09:24 38° ENE 01:13:05 10° N
Okean-O 3.9 01:05:30 10° S 01:09:41 42° W 01:13:54 10° NNW
CSL-04 Rocket 3.8 01:06:24 10° S 01:11:41 79° WSW 01:17:03 10° NNW
CZ-4C R/B 4.4 01:07:33 10° N 01:13:11 22° NE 01:19:21 10° E
Cosmos 1151 Rocket 4.1 01:09:57 10° SSE 01:13:35 26° E 01:17:14 10° NNE
ATLAS 5 CENTAUR R/B 3.2 01:08:55 10° NNW 01:14:26 38° NE 01:19:48 14° ESE
NOSS 3-3 (A) 3.9 01:11:19 10° SSW 01:16:50 84° WNW 01:23:00 10° NNE
NOSS 3-3 (C) 3.9 01:11:25 10° SSW 01:16:57 84° WNW 01:23:07 10° NNE
Cosmos 1745 Rocket 4.0 01:24:50 10° N 01:30:58 67° E 01:37:02 10° SSE
SL-4 R/B 3.2 01:27:48 10° WNW 01:31:59 42° SW 01:35:38 14° SSE
Cosmos 1833 Rocket 4.3 01:33:44 10° NNE 01:37:36 19° ENE 01:39:58 15° E
Cosmos 1242 Rocket 3.0 01:37:07 10° SSW 01:40:39 61° W 01:44:10 10° N
USA 186 2.9 01:38:40 10° SSW 01:40:58 30° W 01:43:10 10° NNW
Meteor 1-25 Rocket 4.3 01:36:51 10° N 01:42:40 66° E 01:47:11 17° SSE
Resurs 01 Rocket 2.6 01:41:39 23° ESE 01:43:15 30° ENE 01:47:06 10° NNE
S3M 4.4 01:38:26 10° SSW 01:44:46 67° W 01:51:05 10° N
MOS 1 4.3 01:41:31 17° SSE 01:45:59 71° ENE 01:51:39 10° N
GPS 2-04 Rocket1 3.3 01:42:10 10° W 01:46:15 56° N 01:49:13 17° ENE
X-37B 2.1 01:50:35 10° NW 01:53:24 28° NNE 01:54:18 24° ENE
Cosmos 1515 Rocket 4.3 01:53:19 31° ESE 01:53:58 33° E 01:57:53 10° NNE
Cosmos 2315 Rocket 4.0 01:49:03 10° S 01:55:23 75° E 02:01:46 10° N
OBJECT-B 2.3 01:55:48 13° SSW 01:58:15 33° W 02:01:14 10° NNW
Delta 2 Rocket 3.9 01:54:36 10° W 01:59:49 71° N 02:03:03 20° ENE
Cosmos 1633 Rocket 3.0 02:02:16 10° N 02:06:40 68° E 02:07:58 43° SSE
USA 267 3.9 02:03:07 19° SSE 02:07:36 47° SW 02:13:54 10° NW
Cosmos 1328 Rocket 3.6 02:05:04 18° S 02:08:16 82° W 02:12:42 10° N
Cosmos 1271 Rocket 4.2 02:11:54 25° ENE 02:11:54 25° ENE 02:14:11 10° NNE
ISS -3.7 02:10:31 10° SW 02:13:26 66° SW 02:13:26 66° SW
Cosmos 1777 Rocket 4.5 02:09:37 10° SSW 02:14:44 60° WNW 02:19:52 10° N
Terra 4.1 02:17:08 10° ENE 02:17:08 10° ENE 02:17:33 10° NE
USA 290 4.4 02:16:11 10° NW 02:18:42 21° WSW 02:19:47 18° SW
MetOp-B 4.3 02:18:33 43° ESE 02:19:51 54° ENE 02:25:03 10° N
Ariane Rocket 3.6 02:16:50 22° S 02:19:59 53° W 02:24:55 10° NNW
Cosmos 1470 Rocket 3.7 02:16:53 10° N 02:21:16 53° E 02:21:26 53° E
Cosmos 2082 Rocket 3.6 02:18:13 10° N 02:22:30 22° ENE 02:23:13 21° ENE
Cosmos 1602 4.4 02:21:09 10° NNW 02:24:55 51° W 02:25:55 39° SW
Cosmos 1437 4.4 02:25:45 24° W 02:26:15 26° WNW 02:28:42 10° NNW
Tianhe-1 2.3 02:25:54 10° WSW 02:28:15 40° WNW 02:28:15 40° WNW
ARIANE 5 R/B 3.8 02:31:09 28° NE 02:31:09 28° NE 02:34:12 10° N
SPOT 5 4.3 02:33:36 25° ENE 02:33:36 25° ENE 02:37:35 10° NNE
OAO 3 Rocket 2.9 02:29:12 10° WSW 02:33:51 88° SSE 02:34:13 76° E
Cosmos 1933 Rocket 4.2 02:31:04 10° N 02:34:30 42° NE 02:34:30 42° NE
COSMOS 2406 3.2 02:30:33 10° NNW 02:36:09 60° ENE 02:36:56 54° ESE
Cosmos 1943 Rocket 4.0 02:39:12 16° ENE 02:39:12 16° ENE 02:40:43 10° NE
Cosmos 1812 3.2 02:37:33 55° W 02:37:47 57° W 02:41:35 10° N
DELTA 2 R/B (1) 3.9 02:32:29 10° WNW 02:37:49 47° SSW 02:38:23 46° SSW
SJ 16-02 1.8 02:36:31 33° SW 02:38:20 60° WNW 02:42:43 10° N
Cosmos 2278 Rocket 3.3 02:34:40 10° SW 02:40:02 44° WNW 02:45:26 10° N
Meteor 2-6 Rocket 4.2 02:41:00 38° SSW 02:43:08 74° W 02:48:38 10° N
Iridium 4 Rocket 3.7 02:42:49 62° SE 02:43:29 67° E 02:49:20 10° N
Meteor 1-14 Rocket 4.3 02:39:36 10° NNW 02:45:22 74° W 02:46:52 50° SSW
Landsat 7 3.9 02:45:52 60° SW 02:46:26 67° W 02:51:10 10° NNW
Cosmos 1666 4.1 02:43:25 10° N 02:45:30 30° NNE 02:45:30 30° NNE
Meteor 1-27 Rocket 3.9 02:52:26 57° E 02:52:26 57° E 02:57:54 10° NNE
USA 305 4.4 02:54:33 10° NNW 02:57:39 29° NNE 02:57:39 29° NNE
ATLAS 5 CENTAUR R/B 3.7 02:53:32 10° NW 02:59:07 35° WSW 03:01:21 28° SSW
Mugunghwa Rocket 4.3 02:54:43 10° WSW 03:00:08 49° SSW 03:00:08 49° SSW
CZ-4C R/B 3.0 02:54:44 10° NNW 03:02:33 86° WSW 03:04:45 55° SSE
SPOT 1/Viking Rocket 3.6 03:03:30 70° WSW 03:03:37 71° WSW 03:08:48 10° NNW
NOSS 3-4 (A) 4.2 02:58:43 10° NNW 03:05:48 54° ENE 03:07:09 48° E
NOSS 3-4 (C) 4.2 02:58:50 10° NNW 03:05:54 53° ENE 03:07:15 48° E
Cosmos 2154 Rocket 4.1 03:12:40 10° N 03:18:30 65° ENE 03:18:30 65° ENE
ATLAS 2AS CENTAUR R/B 3.6 03:12:29 10° NNW 03:19:00 36° NE 03:19:41 35° ENE
Resurs 01 Rocket 3.8 03:19:13 19° WSW 03:19:42 19° W 03:22:51 10° NW
Cosmos 2228 Rocket 4.3 03:21:24 40° NNW 03:21:24 40° NNW 03:24:30 10° N
Cosmos 1833 Rocket 3.2 03:16:20 10° NNW 03:21:40 51° W 03:21:40 51° W
Nadezhda 1 Rocket 3.9 03:21:49 77° WSW 03:22:07 80° W 03:28:23 10° N
Cosmos 2184 Rocket 4.0 03:19:43 10° NNW 03:25:53 69° W 03:26:01 69° WSW
Spot 2 Rocket 4.2 03:28:09 49° WNW 03:28:09 49° WNW 03:32:19 10° NNW
Cosmos 2074 Rocket 4.2 03:21:35 10° NNW 03:27:48 64° W 03:28:09 63° WSW
ERS-1 Rocket 3.7 03:29:55 51° NNW 03:29:55 51° NNW 03:33:39 10° NNW
Meteor 1-11 Rocket 3.9 03:22:45 10° N 03:28:07 73° NNW 03:28:07 73° NNW
Cosmos 2297 4.3 03:42:09 55° NW 03:42:09 55° NW 03:47:10 10° NNE
Terra 3.4 03:56:00 32° NNW 03:56:00 32° NNW 03:58:36 10° NNW
Milstar 3 3.4 03:43:28 10° W 03:56:12 68° SSW 03:56:12 68° SSW
Cosmos 2082 Rocket 3.5 04:01:26 10° NW 04:05:04 34° WNW 04:05:04 34° WNW
Centaur D AC-29 3.6 02:59:23 10° WSW 04:19:09 61° SSW 04:19:09 61° SSW
Cosmos 1943 Rocket 3.6 04:20:39 34° NW 04:20:39 34° NW 04:24:54 10° N
Cosmos 2369 Rocket 3.7 04:33:00 32° N 04:33:00 32° N 04:36:06 10° NNE
ATLAS 2AS CENTAUR R/B 4.2 05:03:30 10° NW 05:07:06 27° WNW 05:07:06 27° WNW
SL-16 R/B 4.4 06:15:31 20° E 06:16:44 21° ENE 06:21:14 10° NNE
Lacrosse 5 4.2 06:27:22 20° NNW 06:27:22 20° NNW 06:29:46 10° NNE
CZ-2D R/B 3.9 06:30:17 10° NNE 06:33:07 27° NE 06:33:07 27° NE
Cosmos 1697 Rocket 4.3 06:42:23 29° ENE 06:42:23 29° ENE 06:45:30 10° NE
USA 215 3.9 06:39:06 43° ENE 06:40:32 50° NE 06:46:47 10° NNW
Resurs 1-4 Rocket 3.7 06:36:24 10° NNE 06:39:15 29° NE 06:39:15 29° NE
USA 281 3.8 06:49:16 48° ENE 06:49:46 49° ENE 06:56:03 10° N
Cosmos 1980 Rocket 4.0 06:54:10 23° E 06:54:10 23° E 06:57:33 10° NE
Cosmos 2173 Rocket 4.4 06:58:36 10° N 07:03:44 60° NNE 07:03:44 60° NNE
Cosmos 2227 Rocket 3.2 07:05:28 10° N 07:10:47 41° ENE 07:10:57 41° ENE
Cosmos 2297 Rocket 2.9 07:07:55 10° NNW 07:12:27 50° NNE 07:12:27 50° NNE
Cosmos 2369 4.5 07:14:44 49° ENE 07:14:44 49° ENE 07:19:10 10° NNE
Cosmos 2123 Rocket 4.0 07:33:54 71° NNW 07:33:54 71° NNW 07:39:29 10° N
Cosmos 2100 Rocket 4.5 07:27:50 10° NNW 07:32:47 50° NW 07:32:47 50° NW
Cosmos 1802 Rocket 4.0 07:30:09 10° N 07:35:31 68° NNW 07:35:31 68° NNW
IRS-1D 4.0 07:35:56 10° NNE 07:40:55 59° E 07:40:55 59° E
IDEFIX/ARIANE 42P 3.4 07:43:22 10° NNE 07:48:20 41° E 07:48:54 40° ESE
COSMOS 2455 3.9 07:44:05 10° NW 07:47:29 33° NW 07:47:29 33° NW
Cosmos 2322 Rocket 4.5 07:52:58 11° SE 07:55:55 16° E 07:59:16 10° ENE
Cosmos 1864 Rocket 4.3 07:50:50 10° N 07:57:10 74° W 07:57:23 73° WSW
Cosmos 2219 3.7 07:52:25 10° NNW 07:56:43 49° NW 07:56:43 49° NW
Timation 1 Rocket 4.4 07:52:24 10° NNW 07:58:23 74° ENE 08:00:28 42° SE
SL-16 R/B 2.8 08:00:37 50° WNW 08:00:37 50° WNW 08:05:57 10° NNW
Lacrosse 4 Rocket 3.0 08:02:37 29° NNW 08:02:37 29° NNW 08:05:29 10° N
Meteor 1-24 Rocket 4.1 08:01:33 47° SE 08:02:42 56° E 08:08:01 10° NNE
Cosmos 1447 Rocket 4.5 08:03:04 59° S 08:04:23 82° E 08:10:45 10° N
ADEOS II 2.2 08:02:01 10° N 08:06:52 58° WNW 08:06:52 58° WNW
Cosmos 1420 Rocket 3.9 08:07:40 77° SE 08:07:52 79° ESE 08:13:04 10° NNE
ARIANE 5 R/B 3.7 08:03:20 10° NNE 08:08:01 36° E 08:09:44 28° SE
APEX 4.2 08:06:19 10° NNW 08:11:18 76° ENE 08:14:49 25° SSE
CZ-2D R/B 3.7 08:10:59 10° NNW 08:14:26 21° WNW 08:14:26 21° WNW
ADEOS Rocket 3.5 08:12:28 23° SSE 08:17:29 85° ENE 08:25:16 10° NNW
CZ-4B R/B 4.1 08:13:50 10° NNE 08:18:46 50° E 08:20:30 35° SSE
Cosmos 1536 Rocket 4.3 08:20:10 41° NW 08:20:10 41° NW 08:23:29 10° N
Resurs 1-4 Rocket 3.9 08:17:21 10° NNW 08:20:20 18° WNW 08:20:20 18° WNW
Meteor 2-5 Rocket 3.6 08:21:35 61° SW 08:22:28 73° W 08:28:07 10° N
USA 215 4.3 08:26:21 26° W 08:26:21 26° W 08:29:31 10° WNW
Cosmos 1697 Rocket 4.1 08:24:06 23° WNW 08:24:21 23° WNW 08:28:45 10° N
Cosmos 407 Rocket 3.4 08:23:36 10° NNW 08:28:55 66° WSW 08:29:42 58° SSW
Cosmos 1725 Rocket 4.5 08:23:44 10° NNW 08:29:26 39° W 08:29:35 39° W
Atlas Centaur 2 3.3 08:28:29 37° SSW 08:30:17 43° SSE 08:36:33 10° E
CZ-4C R/B 3.4 08:29:51 63° SSE 08:30:32 85° ENE 08:34:44 10° N
GP-B 3.6 08:27:06 10° N 08:30:46 44° WNW 08:30:46 44° WNW
Cosmos 292 Rocket 3.8 08:32:03 54° S 08:33:08 78° ESE 08:38:00 10° NNE
USA 281 4.4 08:36:07 22° W 08:36:07 22° W 08:39:36 10° NW
CBERS-1 4.3 08:30:56 10° N 08:35:48 46° WNW 08:36:21 45° W
Cosmos 1980 Rocket 2.9 08:35:56 34° W 08:36:47 36° WNW 08:41:59 10° N
CENTAUR R/B 3.4 08:34:16 22° SSE 08:37:12 38° ESE 08:42:56 10° NE
Cosmos 405 3.7 08:33:49 10° N 08:37:14 51° E 08:38:01 41° SE
Cosmos 2233 Rocket 4.1 08:32:28 10° NNW 08:38:26 54° W 08:40:08 41° SW
Aureole 2 Rocket 4.3 08:37:08 10° NNE 08:39:19 22° ENE 08:40:49 14° ESE
ISS -0.5 08:44:04 10° N 08:46:12 15° NNE 08:48:19 10° ENE
Spot 1 4.2 08:46:49 41° SSW 08:48:17 65° WSW 08:53:06 10° NNW
Cosmos 1452 Rocket 3.4 08:49:49 38° SSW 08:51:51 77° WNW 08:57:09 10° NNE
Cosmos 2227 Rocket 3.7 08:50:18 10° NW 08:52:41 18° WNW 08:52:41 18° WNW
Cosmos 2297 Rocket 4.3 08:54:01 10° WNW 08:54:12 10° WNW 08:54:12 10° WNW
Cosmos 1954 Rocket 3.9 08:51:58 10° NNW 08:57:16 83° WSW 09:02:34 10° SSE
CZ-2D R/B 3.5 08:55:14 10° NNE 08:59:40 88° W 09:01:54 29° SSW
Cosmos 1300 3.7 08:57:01 10° NNW 08:59:48 30° WNW 08:59:48 30° WNW
Cosmos 1346 Rocket 2.6 09:04:06 33° SSW 09:05:45 83° W 09:09:40 10° N
Spot 4 Rocket 4.0 09:03:47 10° NNE 09:08:57 90° S 09:12:53 17° SSW
CZ-2C R/B 2.9 09:03:50 10° NNE 09:08:58 64° E 09:14:05 10° S
Cosmos 2082 4.4 09:05:20 10° NW 09:10:22 33° WSW 09:12:47 23° SW
SEDSat Delta rocket 3.9 09:08:15 28° SW 09:10:34 43° SSE 09:15:10 10° E
Cosmos 389 Rocket 4.3 09:07:47 10° NNE 09:10:56 32° ENE 09:14:02 10° SE
SL-16 R/B 2.2 09:08:41 25° SSW 09:12:05 72° WNW 09:17:46 10° NNE
Cosmos 1110 Rocket 4.1 09:08:20 17° S 09:12:17 76° ESE 09:17:27 10° NNE
OAO 2 Rocket 3.7 09:08:21 18° W 09:12:19 68° N 09:17:38 10° E
ALOS 3.7 09:10:00 10° NNE 09:14:17 36° E 09:18:34 10° SSE
MSX 4.4 09:10:47 10° N 09:16:07 40° WNW 09:19:17 22° SW
Cosmos 1455 2.9 09:12:40 10° N 09:16:27 56° E 09:20:14 10° SSE
Cosmos 1703 3.7 09:16:48 10° S 09:20:36 61° E 09:24:25 10° NNE
SL-08 R/B 3.2 09:16:01 10° S 09:20:41 62° WSW 09:25:19 10° NNW
Cosmos 1892 Rocket 3.8 09:21:24 23° SW 09:23:48 47° W 09:27:59 10° N
IDEFIX/ARIANE 42P 4.1 09:23:49 10° NNW 09:27:33 20° WNW 09:29:42 16° W
NOSS 3-2 (C) 3.2 09:24:42 16° SSW 09:29:00 88° ESE 09:35:03 10° NNE
Cosmos 1741 Rocket 4.4 09:26:41 10° N 09:31:53 69° ENE 09:37:04 10° SSE
OAO 3 Copernicus 4.3 09:29:39 18° WSW 09:33:25 90° SW 09:38:30 10° ENE
Cosmos 1484 Rocket 4.2 09:30:17 10° NNE 09:33:55 37° E 09:37:29 10° SSE
Okean 1-7 Rocket 3.7 09:34:23 10° SSW 09:38:48 60° W 09:43:19 10° N
USA 32 4.0 09:33:40 10° N 09:38:54 67° W 09:44:05 10° S
Cosmos 2322 Rocket 2.4 09:34:49 15° SW 09:39:24 54° WNW 09:44:58 10° N
Meteor 2-10 Rocket 4.2 09:36:57 10° NNW 09:42:06 38° W 09:47:03 10° SSW
CZ-2C R/B 3.1 09:39:16 10° N 09:43:10 50° WNW 09:47:05 10° SSW
ARIANE 5 R/B 3.9 09:43:01 10° NNW 09:46:48 21° WNW 09:50:05 12° WSW
Cosmos 2058 Rocket 3.1 09:43:41 10° NNW 09:48:08 61° W 09:52:33 10° S
SL-24 R/B 3.9 09:45:18 10° SSE 09:48:58 77° ENE 09:52:58 10° N
Cosmos 2263 Rocket 2.4 09:44:25 10° NNW 09:49:51 49° WSW 09:55:18 10° S
Cosmos 1726 Rocket 4.4 09:46:52 10° NNW 09:50:44 31° W 09:54:37 10° SSW
NOSS 3-2 (A) 4.2 09:47:34 13° WSW 09:51:58 33° NW 09:57:25 10° NNE
Tsikada Rocket 4.3 09:55:11 10° SSW 10:01:22 50° W 10:07:32 10° N
Cosmos 2360 Rocket 2.3 09:56:28 10° SSW 10:02:03 62° WNW 10:07:41 10° NNE
Cosmos 2219 Rocket 3.4 09:57:00 10° S 10:02:19 44° ESE 10:07:41 10° NE
IRAS Rocket 4.2 09:59:47 10° S 10:05:19 71° WSW 10:10:55 10° NNW
USA 238 DEB 4.3 09:59:41 10° WSW 10:05:44 40° NW 10:12:01 10° NNE
USA 238 4.3 09:59:47 10° WSW 10:05:50 40° NW 10:12:08 10° NNE
Intelsat 5-3 Rocket 4.1 10:01:49 10° WSW 10:08:26 28° S 10:11:47 10° SE
BREEZE-M DEB (TANK) 3.6 10:08:24 10° NW 10:16:00 43° WSW 10:18:52 10° SSE
